TimeCDT,TemperatureF,Dew PointF,Humidity,Sea Level PressureIn,VisibilityMPH,Wind Direction,Wind SpeedMPH,Gust SpeedMPH,PrecipitationIn,Events,Conditions,WindDirDegrees,DateUTC
12:53 AM,72.0,44.1,37,30.00,10.0,South,8.1,-,N/A,,Clear,190,2013-09-06 05:53:00
1:53 AM,70.0,43.0,38,29.99,10.0,SSW,10.4,-,N/A,,Clear,200,2013-09-06 06:53:00
2:53 AM,69.1,45.0,42,29.99,10.0,SSW,6.9,-,N/A,,Clear,200,2013-09-06 07:53:00
3:53 AM,68.0,45.0,43,29.99,10.0,SSW,9.2,-,N/A,,Clear,200,2013-09-06 08:53:00
4:53 AM,64.9,46.9,52,29.99,10.0,SSW,5.8,-,N/A,,Clear,210,2013-09-06 09:53:00
5:53 AM,62.1,46.9,58,30.00,10.0,SW,4.6,-,N/A,,Clear,230,2013-09-06 10:53:00
6:53 AM,63.0,44.1,50,30.01,10.0,WSW,5.8,-,N/A,,Clear,240,2013-09-06 11:53:00
7:53 AM,61.0,44.1,54,30.02,10.0,SSW,6.9,-,N/A,,Clear,210,2013-09-06 12:53:00
8:53 AM,69.1,44.1,40,30.03,10.0,SSW,5.8,-,N/A,,Clear,200,2013-09-06 13:53:00
9:53 AM,78.1,48.0,35,30.01,10.0,South,4.6,-,N/A,,Clear,180,2013-09-06 14:53:00
10:53 AM,87.1,50.0,28,30.00,10.0,South,9.2,-,N/A,,Clear,170,2013-09-06 15:53:00
11:53 AM,93.0,44.1,18,29.99,10.0,South,13.8,-,N/A,,Clear,190,2013-09-06 16:53:00
12:53 PM,95.0,45.0,18,29.96,10.0,SSW,11.5,18.4,N/A,,Clear,210,2013-09-06 17:53:00
1:53 PM,96.1,43.0,16,29.93,10.0,South,15.0,25.3,N/A,,Clear,170,2013-09-06 18:53:00
2:53 PM,97.0,43.0,16,29.91,10.0,South,18.4,25.3,N/A,,Clear,190,2013-09-06 19:53:00
3:53 PM,98.1,46.0,17,29.89,10.0,South,9.2,19.6,N/A,,Clear,190,2013-09-06 20:53:00
4:53 PM,97.0,46.0,18,29.88,10.0,SSE,12.7,21.9,N/A,,Clear,160,2013-09-06 21:53:00
5:53 PM,96.1,46.0,18,29.88,10.0,South,9.2,-,N/A,,Clear,170,2013-09-06 22:53:00
6:53 PM,95.0,50.0,22,29.87,10.0,South,9.2,-,N/A,,Clear,180,2013-09-06 23:53:00
7:53 PM,90.0,50.0,25,29.88,10.0,South,6.9,-,N/A,,Clear,170,2013-09-07 00:53:00
8:53 PM,84.0,50.0,31,29.89,10.0,SSE,8.1,-,N/A,,Clear,160,2013-09-07 01:53:00
9:53 PM,81.0,51.1,35,29.89,10.0,SSE,8.1,-,N/A,,Clear,160,2013-09-07 02:53:00
10:53 PM,80.1,52.0,38,29.89,10.0,South,9.2,-,N/A,,Clear,170,2013-09-07 03:53:00
11:53 PM,78.1,53.1,42,29.90,10.0,South,9.2,-,N/A,,Clear,180,2013-09-07 04:53:00